User: anonymous   Login
Location: Unspecified
(0.0000°N, 0.0000°E)
Time: 01:49:00
(UTC+00:00)
Language:

LAPAN A2 - Orbit

View from above orbital plane
View from above orbital plane
View from above satellite
View from above satellite

Ground track
Ground track

The orbit data is extracted from the following two-line orbital elements,

1 40931U 15052B   18053.09701569  .00000814  00000-0  24453-4 0  9999
2 40931 005.9979 250.7892 0012381 181.4153 178.6701 14.76566708129966
Epoch (UTC): 22 February 2018 02:19:42
Eccentricity: 0.0012381
inclination: 5.9979°
perigee height: 631 km
apogee height: 649 km
right ascension of ascending node: 250.7892°
argument of perigee: 181.4153°
revolutions per day: 14.76566708
mean anomaly at epoch: 178.6701°
orbit number at epoch: 12996

The dashed part of the orbit path shows where the satellite is in the earth's shadow,  

DLR